Location: Rometta
(44.2000°N, 10.0500°E)
Time: 21:22:59
(UTC+00:00)

YAOGAN 1 - Pass Details

Date: 20 January 2021
Orbit: 618 x 620 km, 97.9° (Epoch: 03 March)

Event Time Altitude Azimuth Distance (km) Brightness Sun altitude
Rises 18:27:49 0° 182° (S) 2,883 6.1 -23.8°
Reaches altitude 10° 18:30:04 10° 188° (S) 1,982 5.3 -24.2°
Maximum altitude 18:34:11 44° 261° (W) 863 3.7 -24.9°
Drops below altitude 10° 18:38:21 10° 334° (NNW) 1,998 5.4 -25.7°
Sets 18:40:39 0° 341° (NNW) 2,909 6.2 -26.1°
